EGCC

Manchester International Airport

Airport
ICAO code
EGCC
IATA Code
MAN
Summary
ICAO Region
EUR
ICAO Territory
Location

Ringway, Manchester, England,

Serving
Manchester
Coordinates
53° 21' 32" N , 2° 16' 27" W
KCC
Metar
Observation
EGCC 082320Z AUTO 20007KT 170V230 9999 OVC033 05/02 Q1026 TEMPO RA BKN014
Station
Manchester Airport
Date/Time
2023-02-08 23:20:00
Wind direction
200°
Wind speed
07 kts
Lowest cloud amount
overcast
Temperature
5°C
Dew point
2°C
Humidity
80%
QNH
1026 hPa
Weather condition
n/a

Description

International airport serving Greater Manchester and the north-west region of England; has a co-located railway station with frequent services to many northern England destinations. Trades commercially as "Manchester International Airport"

Climatology

Temperate Marine climate/Oceanic climate (Köppen climate classification Cfb). Moderately cool summer and comparatively warm winter with a temperature range of only 14°C. Prevailing south-westerly winds from the Atlantic Ocean.

Runways

Designator Length Width Surface Rops
05R/23L 3047 46 CON Yes/Yes
05L/23R 3048 46 ASP Yes/Yes

SKYbrary Partners:

Safety knowledge contributed by: